This demonstration page uses our WeatherBlox Daily Observations layout. Learn more.

39.92423, -83.80882

Hourly Observations for December 13, 2018

Temp ( °F °C ) Dew Point ( °F °C ) Humidity (%) Winds ( mph kmh ) Pressure ( in mb ) Visibility ( mi km ) Precip ( " mm )
12:56 am 00:56 Clear 36 2.2 32 0 86 86 SW 6 9 30.03 1017 10 16.0934 0 0
1:56 am 01:56 Mostly Clear 33 0.6 31 -0.6 92 92 WSW 7 11 30.04 1017 10 16.0934 0 0
2:56 am 02:56 Cloudy 33 0.6 31 -0.6 92 92 SW 3 6 30.06 1018 10 16.0934 0 0
3:56 am 03:56 Clear 31 -0.6 30 -1.1 96 96 SW 5 7 30.08 1019 10 16.0934 0 0
4:40 am 04:40 Mostly Cloudy 32 0 30 -1 93 93 SW 5 7 30.12 1020 10 16.0934 0 0
4:56 am 04:56 Cloudy 32 0 32 0 100 100 WSW 5 7 30.09 1019 10 16.0934 0 0
5:11 am 05:11 Cloudy 34 1 34 1 100 100 WSW 5 7 30.12 1020 10 16.0934 0 0
5:56 am 05:56 Mostly Cloudy 30 -1.1 30 -1.1 100 100 Calm 30.11 1020 7 11.26538 0 0
6:56 am 06:56 Cloudy with Mist and Fog 30 -1.1 30 -1.1 100 100 Calm 30.14 1021 4 6.43736 0 0
7:47 am 07:47 Mostly Cloudy with Mist and Fog 28 -2 28 -2 100 100 ENE 3 6 30.18 1022 2 3.21868 0 0
7:54 am 07:54 Mostly Cloudy with Mist and Fog 28 -2 28 -2 100 100 Calm 30.18 1022 3 4.82802 0 0
7:56 am 07:56 Cloudy with Mist and Fog 28 -2.2 28 -2.2 100 100 ESE 3 6 30.16 1021 3 4.82802 0 0
8:24 am 08:24 Cloudy with Mist and Fog 28 -2 28 -2 100 100 E 3 6 30.18 1022 2.5 4.02335 0 0
8:35 am 08:35 Cloudy with Mist and Fog 30 -1 30 -1 100 100 E 3 6 30.21 1023 3 4.82802 0 0
8:56 am 08:56 Cloudy with Mist and Fog 32 0 32 0 100 100 ESE 3 6 30.17 1022 3 4.82802 0 0
9:21 am 09:21 Cloudy with Mist and Fog 34 1 34 1 100 100 Calm 30.21 1023 2.5 4.02335 0 0
9:39 am 09:39 Cloudy with Mist and Fog 36 2 36 2 100 100 E 3 6 30.21 1023 3 4.82802 0 0
9:56 am 09:56 Cloudy with Mist and Fog 36 2.2 36 2.2 100 100 ESE 3 6 30.19 1022 4 6.43736 0 0
10:56 am 10:56 Cloudy with Mist and Fog 38 3.3 37 2.8 97 97 Calm 30.2 1023 6 9.65604 0 0
11:56 am 11:56 Cloudy 40 4.4 38 3.3 93 93 SE 6 9 30.18 1022 10 16.0934 0 0
12:56 pm 12:56 Mostly Cloudy 45 7.2 40 4.4 83 83 SSE 6 9 30.16 1022 10 16.0934 0 0
1:07 pm 13:07 Partly Cloudy 46 8 39 4 76 76 SSE 8 13 30.18 1022 10 16.0934 0 0
1:56 pm 13:56 Mostly Sunny 47 8.3 38 3.3 71 71 S 10 17 30.16 1021 10 16.0934 0 0
2:20 pm 14:20 Mostly Cloudy 46 8 37 3 71 71 SSE 10 17 30.15 1021 10 16.0934 0 0
2:56 pm 14:56 Cloudy 47 8.3 39 3.9 74 74 SE 9 15 30.16 1022 10 16.0934 0 0
3:56 pm 15:56 Cloudy 47 8.3 39 3.9 74 74 SE 8 13 30.17 1022 10 16.0934 0 0
4:56 pm 16:56 Cloudy 45 7.2 39 3.9 80 80 SE 9 15 30.18 1022 10 16.0934 0 0
5:56 pm 17:56 Cloudy 44 6.7 39 3.9 83 83 SE 8 13 30.19 1022 10 16.0934 0 0
6:46 pm 18:46 Cloudy 43 6 37 3 81 81 ESE 7 11 30.18 1022 10 16.0934 0 0.0254
6:56 pm 18:56 Cloudy 42 5.6 38 3.3 85 85 SE 6 9 30.2 1023 10 16.0934 0 0.0254
7:05 pm 19:05 Cloudy 43 6 37 3 81 81 SSE 7 11 30.21 1023 10 16.0934 0 0
7:40 pm 19:40 Cloudy 43 6 37 3 81 81 SE 8 13 30.18 1022 10 16.0934 0 0
7:56 pm 19:56 Cloudy 43 6.1 38 3.3 82 82 SE 8 13 30.19 1023 10 16.0934 0 0
8:56 pm 20:56 Partly Cloudy 40 4.4 36 2.2 86 86 SE 7 11 30.19 1022 10 16.0934 0 0
9:56 pm 21:56 Mostly Cloudy 41 5 37 2.8 86 86 SE 8 13 30.19 1022 10 16.0934 0 0
10:56 pm 22:56 Clear 41 5 36 2.2 82 82 SE 8 13 30.18 1022 10 16.0934 0 0
11:56 pm 23:56 Clear 41 5 36 2.2 82 82 SE 8 13 30.17 1022 10 16.0934 0 0

Powered by AerisWeather